Location: Arleux
(50.3632°N, 2.8721°E)
Time: 02:01:04
(UTC+00:00)

N. Korean satellite - Pass Details

Date: 12 March 2021
Orbit: 453 x 499 km, 97.2° (Epoch: 11 April)

Event Time Altitude Azimuth Distance (km) Brightness Sun altitude
Rises 04:28:42 0° 25° (NNE) 2,555 10.8 -16.6°
Reaches altitude 10° 04:31:07 10° 41° (NE) 1,678 10.1 -16.3°
Maximum altitude 04:33:58 22° 93° (E) 1,130 9.3 -15.8°
Drops below altitude 10° 04:36:49 10° 145° (SE) 1,685 9.6 -15.4°
Sets 04:39:15 0° 162° (SSE) 2,568 10.3 -15.0°
